Weather Roundup
Issued by NWS

Home | Current Version | Previous Version | Graphics & Text | Print | Product List | Glossary Off
Versions: 1 2 3 4 5 6 7 8 9 10 11 12 13 14 15 16 17 18 19 20 21 22 23 24 25 26 27 28 29 30 31 32 33 34 35 36 37 38 39 40 41 42 43 44 45 46 47 48 49 50

000
NZUS93 KARX 181310
HRRWXR

CURRENT HOURLY OBSERVATIONS ACROSS
MUCH OF THE UPPER MISSISSIPPI VALLEY
NATIONAL WEATHER SERVICE LA CROSSE WI
800 AM CDT THU SEP 18 2014


...SOUTHEAST MINNESOTA...


CITY           SKY/WX    TMP DP  RH WIND       PRES   REMARKS
ROCHESTER      SUNNY     50  48  93 SE5       30.10R
ROCHESTER/MAYO FAIR      51  48  92 E5        30.10R
WINONA         CLOUDY    52  50  93 SE8       30.12R FOG
AUSTIN         SUNNY     48  48 100 CALM      30.09R
ALBERT LEA     SUNNY     52  50  93 CALM      30.08R FOG
DODGE CENTER   SUNNY     50  48  93 SE5       30.09R FOG
PRESTON        SUNNY     48  48 100 SE3       30.11R
OWATONNA       SUNNY     52  48  87 CALM      30.08R
FARIBAULT      SUNNY     52  46  82 CALM      30.08R HAZE
$$

...ELSEWHERE IN MINNESOTA...


CITY           SKY/WX    TMP DP  RH WIND       PRES   REMARKS
MINNEAPOLIS    SUNNY     49  46  90 NE6       30.09R
INTNL FALLS    CLOUDY    42  41  96 VRB7      30.10S FOG
DULUTH         MOSUNNY   43  36  76 E13       30.13S
RED WING       CLOUDY    50  48  93 E6        30.09R FOG
REDWOOD FALLS  FOG       52  52 100 E7        30.04R VSB 1/4
MANKATO        SUNNY     52  46  82 E5        30.07R
WORTHINGTON    MOCLDY    52  48  87 CALM      30.06R
FAIRMONT       CLEAR     48  45  87 S3        30.06R
$$

...SOUTHWEST WISCONSIN...


CITY           SKY/WX    TMP DP  RH WIND       PRES   REMARKS
LA CROSSE      CLOUDY    52  50  93 E5        30.12R FOG
PRAIRIE DU CHI FOG       49  48  95 CALM      30.12R VSB 3/4
BOSCOBEL       CLOUDY    51  49  92 E6        30.14R FOG
LONE ROCK      CLOUDY    55  51  86 E9        30.14R FOG
PLATTEVILLE    SUNNY     51  48  92 E12       30.12R
FORT MC COY    CLOUDY    50  49  98 E9        30.14R FOG
CAMP DOUGLAS   CLOUDY    48  48 100 E9        30.15R FOG
VIROQUA        CLOUDY    47  47 100 E7        30.13R VSB<1/4
WIS DELLS      CLOUDY    49  47  95 E6        30.15R FOG
$$

...ELSEWHERE IN WISCONSIN...


CITY           SKY/WX    TMP DP  RH WIND       PRES   REMARKS
MILWAUKEE      CLOUDY    53  48  83 N10       30.14R
MADISON        CLOUDY    50  48  93 E8        30.15R FOG
GREEN BAY      CLOUDY    45  38  76 N8        30.18S
EAU CLAIRE     CLOUDY    47  45  93 E7        30.12R FOG
BLACK RVR FLS  CLOUDY    50  50 100 SE7       30.13R FOG
MEDFORD        CLOUDY    44  43  97 E7        30.14R FOG
WAUSAU         CLOUDY    42  40  92 SE9       30.15S
WIS RAPIDS     CLOUDY    46  43  89 E8        30.17R
MARSHFIELD     CLOUDY    45  43  93 SE10      30.15R
RICE LAKE      FOG       48  47  95 E6        30.13S VSB 3/4
$$

...NORTHEAST IOWA...


CITY           SKY/WX    TMP DP  RH WIND       PRES   REMARKS
WATERLOO       SUNNY     48  46  93 CALM      30.08R FOG
DUBUQUE        SUNNY     54  52  93 CALM      30.11R FOG
DECORAH        SUNNY     48  48 100 CALM      30.10R
MASON CITY     SUNNY     47  47 100 S3        30.10R FOG
CHARLES CITY   SUNNY     50  48  93 E3        30.10R FOG
OELWEIN        SUNNY     50  50 100 E5        30.10R FOG
$$

...ELSEWHERE IN IOWA...


CITY           SKY/WX    TMP DP  RH WIND       PRES   REMARKS
DES MOINES     FOG       56  55  97 S7        30.07R VSB 1/8
IOWA CITY      SUNNY     51  50  96 CALM      30.11R
FORT DODGE     MOSUNNY   50  48  93 CALM      30.08R
MARSHALLTOWN   SUNNY     50  50 100 CALM      30.07R FOG
CEDAR RAPIDS   SUNNY     51  50  96 E5        30.09R FOG
$$

...NORTHERN ILLINOIS...


CITY           SKY/WX    TMP DP  RH WIND       PRES   REMARKS
CHICAGO-OHARE  CLOUDY    56  53  90 N5        30.12R FOG
DUPAGE         FOG       52  51  97 NE7       30.13R VSB 1
CHICAGO-MIDWAY MOSUNNY   59  54  83 N3        30.12R
MOLINE         SUNNY     50  48  93 CALM      30.10R FOG
ROCKFORD       SUNNY     52  48  86 E9        30.15R
STERLING       SUNNY     52  48  87 E5        30.12R
PEORIA         SUNNY     54  51  90 NE6       30.09S FOG
$$

NOTE: "FAIR" INDICATES FEW OR NO CLOUDS BELOW 12,000 FEET WITH NO
SIGNIFICANT WEATHER AND/OR OBSTRUCTIONS TO VISIBILITY. WIND
SPEEDS ARE IN MILES-PER-HOUR.



USA.gov is the U.S. government's official web portal to all federal, state and local government web resources and services.